Showing default

RADIO ROSTO, 23439

Orbit data source: Space-Track

RADIO ROSTO, 23439 is a payload satellite owned by NPO PM (CIS) in LEO that was launched on Mon, 26 Dec 1994 UTC via an ROKOT launch vehicle from the Tyuratam Missile And Space Complex (TTMTR). Payload-class satellites include a variety of spacecraft equipped with specific instruments for various scientific and technological missions. These include communications satellites like Starlink; space stations such as the ISS; scientific satellites like the Hubble; Earth observation satellites from companies like Planet Labs, Umbra, and HawkEye 360; GPS; miniature CubeSats for education and research; and military/defense satellites.

Loading next visibility...
Identifier
23439, 1994-085A
Orbit
LEO
Country
Flag of CISCIS
Related business
Manufacturer
NPO PM
Mission
Partially operational Civil Communications
Bus & Motor
STRELA-1M, Unknown motor
Mass
70 kg wet, 70 kg dry
Launch date (UTC)
1994-12-26 (31 years ago)
Launch vehicle
ROKOT
Launch site
Tyuratam Missile And Space Complex (TTMTR)
Object type
Payload
Rocket body
Debris
Shape & HBR
Sphere, Unknown HBR
Radar Cross Section
0.785 m², Medium (>0.1 m² and < 1m²)

Expand to show TLE details & history
Last TLE update: 5 hours ago

TLE from 5 hours ago
0 RADIO ROSTO
1 23439U 94085A   25310.32894163 -.00000032  00000-0  28687-3 0  9994
2 23439  64.8172 303.6355 0148432  45.4274 315.8656 11.27581991270775
Epoch: 2025-11-06T07:53Z
TLE epoch observation values (Epoch: 2025-11-06T07:53:40.556Z)
Latitude
-0.00004°
Longitude
139.42767°
Altitude
1,935.407 km
Speed
6.962 km/s
True Right ascension
20h 14m 32s
True Declination
0° 00' 00"
Sunlit
Object was in daylight at epoch
Visualization orbit readout
Latitude
Unknown
Longitude
Unknown
Altitude
Unknown
Speed
Unknown
Apparent Right ascension
Unknown
Apparent Declination
Unknown
Sunlit
N/A
Visualization observer readout
Local Sidereal Time
08:34:36
Azimuth
Unknown
Elevation
Unknown
Doppler factor
Unknown
Orbital elements
Apogee altitude
2,145.803 km
Perigee altitude
1,896.459 km
Semi-major axis
8,399.268 km
Eccentricity
0.01484
Inclination
64.8172°
RAAN
303.6355°
Arg. of periapsis
45.4274°
True anomaly
314.6653°
Mean anomaly
315.8656°
Eccentric anomaly
315.26705°
Mean motion
2.81956 °/min
Orbital period
127.68 mins
BSTAR
0.00028687
Loading maneuver chart data...
Computing Atmospheric mass density...
Loading historical data...
Loading historical data...
Loading historical data...
Loading historical data...
Loading historical data...
Loading historical data...
Loading historical data...

Documentation

Showing up to 5 results
|